This demonstration page uses our WeatherBlox Daily Observations layout. Learn more.

Left ArrowRight Arrow

Hourly Observations for June 1, 2021

Temp ( °F °C ) Dew Point ( °F °C ) Humidity (%) Winds ( mph kmh ) Pressure ( in mb ) Visibility ( mi km ) Precip ( " mm )
12:53 am 00:53 Clear 81 27.2 49 9.4 33 33 N 5 7 29.81 1010 10 16 0.00 0.00
1:53 am 01:53 Clear 76 24.4 49 9.4 39 39 Calm 29.82 1010 10 16 0.00 0.00
2:53 am 02:53 Clear 76 24.4 49 9.4 39 39 NNW 7 11 29.81 1010 10 16 0.00 0.00
3:53 am 03:53 Clear 73 22.8 49 9.4 43 43 Calm 29.81 1010 10 16 0.00 0.00
4:53 am 04:53 Clear 71 21.7 50 10 47 47 NW 3 6 29.82 1010 10 16 0.00 0.00
5:53 am 05:53 Sunny 68 20 51 10.6 55 55 S 3 6 29.84 1010 10 16 0.00 0.00
6:53 am 06:53 Sunny 72 22.2 49 9.4 44 44 Calm 29.85 1011 10 16 0.00 0.00
7:53 am 07:53 Sunny 78 25.6 49 9.4 36 36 Calm 29.85 1011 10 16 0.00 0.00
8:53 am 08:53 Sunny 84 28.9 48 8.9 29 29 N 3 6 29.86 1011 10 16 0.00 0.00
9:53 am 09:53 Sunny 89 31.7 45 7.2 22 22 ESE 5 7 29.85 1011 10 16 0.00 0.00
10:53 am 10:53 Sunny 94 34.4 44 6.7 18 18 VRB 3 6 29.84 1010 10 16 0.00 0.00
11:53 am 11:53 Sunny 97 36.1 42 5.6 15 15 SSE 7 11 29.83 1010 10 16 0.00 0.00
12:53 pm 12:53 Sunny 100 37.8 46 7.8 16 16 SE 7 11 29.81 1010 10 16 0.00 0.00
1:53 pm 13:53 Sunny 103 39.4 45 7.2 14 14 undefined N/A 29.79 1009 10 16 0.00 0.00
2:53 pm 14:53 Sunny 104 40 43 6.1 12 12 SE 8 13 29.77 1008 10 16 0.00 0.00
3:53 pm 15:53 Sunny 105 40.6 48 8.9 15 15 S 5 7 29.75 1008 10 16 0.00 0.00
4:53 pm 16:53 Sunny 106 41.1 47 8.3 14 14 SE 13 20 29.73 1007 10 16 0.00 0.00
5:53 pm 17:53 Sunny 105 40.6 47 8.3 14 14 S 12 19 29.72 1007 10 16 0.00 0.00
6:53 pm 18:53 Sunny 104 40 43 6.1 12 12 S 12 19 29.72 1007 10 16 0.00 0.00
7:53 pm 19:53 Sunny 98 36.7 51 10.6 20 20 SE 9 15 29.72 1007 10 16 0.00 0.00
8:53 pm 20:53 Clear 92 33.3 57 13.9 31 31 SE 7 11 29.73 1007 10 16 0.00 0.00
9:53 pm 21:53 Clear 90 32.2 57 13.9 33 33 SSE 7 11 29.75 1007 10 16 0.00 0.00
10:53 pm 22:53 Clear 86 30 58 14.4 39 39 Calm 29.76 1008 10 16 0.00 0.00
11:53 pm 23:53 Clear 84 28.9 56 13.3 38 38 NNE 3 6 29.76 1008 10 16 0.00 0.00

Powered by AerisWeather